Regional Weather Roundup
Issued by NWS Cleveland, OH

Home | Current Version | Previous Version | Text Only | Print | Product List | Glossary Off
Versions: 1 2 3 4 5 6 7 8 9 10 11 12 13 14 15 16 17 18 19 20 21 22 23 24 25 26 27 28 29 30 31 32 33 34 35 36 37 38 39 40 41 42 43 44 45 46 47 48 49 50

000
ASUS41 KCLE 030810
RWRCLE
OHIO REGIONAL WEATHER ROUNDUP
NATIONAL WEATHER SERVICE WILMINGTON, OH
300 AM EST SAT DEC 03 2016

NOTE: "FAIR" INDICATES FEW OR NO CLOUDS BELOW 12,000 FEET WITH NO
SIGNIFICANT WEATHER AND/OR OBSTRUCTIONS TO VISIBILITY.

OHZ001>008-015>018-024>027-034-035-043-044-030900-
   NORTHWEST OHIO

CITY           SKY/WX    TMP DP  RH WIND       PRES   REMARKS
DEFIANCE       NOT AVBL
FINDLAY        NOT AVBL
TOLEDO EXPRESS CLOUDY    35  31  85 W3        30.28R
TOLEDO EXEC    NOT AVBL
LIMA           CLOUDY    34  30  85 NW6       30.29R WCI  29
$$

OHZ009>014-019>023-028>033-038-089-030900-
   NORTHEAST OHIO

CITY           SKY/WX    TMP DP  RH WIND       PRES   REMARKS
CLE-HOPKINS    CLOUDY    39  28  64 NW10      30.27R
CLE-LAKEFRONT  NOT AVBL
CUY CO. ARPT   NOT AVBL
LORAIN-ELYRIA  NOT AVBL
ASHTABULA      NOT AVBL
AKRON-CANTON   CLOUDY    36  27  69 NW13      30.23R
WOOSTER        NOT AVBL
MANSFIELD      FAIR      31  27  85 W7        30.25R WCI  24
YOUNGSTOWN     CLOUDY    35  29  78 W9        30.20R WCI  28
$$

OHZ042-051>053-060>062-070>072-077>081-030900-
  SOUTHWEST OHIO

CITY           SKY/WX    TMP DP  RH WIND       PRES   REMARKS
CINC-COVINGTON CLOUDY    37  35  92 CALM      30.31S
CINC-LUNKEN    CLOUDY    38  36  92 CALM      30.34S
HAMILTON       CLOUDY    38  34  85 W3        30.34R
DAYTON         CLOUDY    36  30  79 W6        30.31R
WRIGHT-PAT AFB CLOUDY    37  31  78 SW5       30.31R
DAYTON GENERAL CLOUDY    38  27  64 W5        30.31R
WILMINGTON     NOT AVBL
$$

OHZ036-037-039>041-045>050-054>059-063>069-073>076-082>088-030900-
  CENTRAL AND SOUTHEAST OHIO

CITY           SKY/WX    TMP DP  RH WIND       PRES   REMARKS
COLUMBUS       MOCLDY    33  27  78 NW5       30.29R WCI  29
OSU AIRPORT    CLOUDY    34  28  79 NW3       30.29S
BOLTON FIELD   CLOUDY    35  32  88 CALM      30.30S
RICKENBACK AFB CLOUDY    36  32  85 NW3       30.30R
NEWARK         NOT AVBL
MARION         FAIR      30  25  81 W5        30.29R WCI  25
LANCASTER      MOCLDY    35  31  85 CALM      30.30R
ZANESVILLE     NOT AVBL
NEW PHILLY     NOT AVBL
$$




USA.gov is the U.S. government's official web portal to all federal, state and local government web resources and services.